Location: *
(37.4917°N, 71.5558°E)
Time: 21:25:53
(UTC+00:00)

STARLINK-1150 - Pass Details

Date: 09 April 2020
Orbit: 548 x 551 km, 53.0° (Epoch: 31 May)

Event Time Altitude Azimuth Distance (km) Brightness Sun altitude
Exits shadow 22:22:58 - 137° (SE) 2,240 6.8 -26.8°
Enters shadow 23:24:57 -69° 231° (SW) 12,472 10.4 -16.2°
Maximum altitude 00:03:36 61° 134° (SE) 647 4.1 -9.0°
